COSMOS 1375 DEB, 16383

Orbit data source: Space-Track

COSMOS 1375 DEB, 16383 is space debris in LEO originally from a launch on Sun, 06 Jun 1982 UTC launched from the Plesetsk Missile And Space Complex (PKMTR). Debris objects in space refer to the collection of defunct objects orbiting the Earth. Examples of debris include non-operational satellites, rocket bodies, and fragments generated from explosions, collisions, or faulty payload assembly.

Loading next visibility...
Identifier
16383, 1982-055X
Orbit
LEO
Country
Flag of CISCIS
Related business
Manufacturer
Unknown
Mission
Spacecraft
Bus & Motor
Unknown
Mass
Unknown
Launch date (UTC)
1982-06-06 (44 years ago)
Launch vehicle
Unknown
Launch site
Plesetsk Missile And Space Complex (PKMTR)
Object type
Payload
Rocket body
Debris
Shape & HBR
Unknown shape, 0.3 m
Radar Cross Section
Medium (>0.1 m² and <1 m²)

Expand to show TLE details & history
Last TLE update: 2 days ago

TLE from 2 days ago
0 COSMOS 1375 DEB
1 16383U 82055X   26171.43087735  .00000092  00000-0  17596-3 0  9997
2 16383  65.8295 271.5186 0048684 345.8202  88.3225 13.76327143 35566
Epoch: 2026-06-20T10:20Z
TLE epoch observation values (Epoch: 2026-06-20T10:20:27.803Z)
Latitude
61.75741°
Longitude
-96.02311°
Altitude
985.729 km
Speed
7.365 km/s
True Right ascension
21h 50m 57s
True Declination
61° 37' 06"
Sunlit
Object was in daylight at epoch
Visualization orbit readout
Latitude
Unknown
Longitude
Unknown
Altitude
Unknown
Speed
Unknown
Apparent Right ascension
Unknown
Apparent Declination
Unknown
Sunlit
N/A
Visualization observer readout
Local Sidereal Time
23:09:09
Azimuth
Unknown
Elevation
Unknown
Doppler factor
Unknown
Orbital elements
Apogee altitude
1,011.26 km
Perigee altitude
939.659 km
Semi-major axis
7,353.596 km
Eccentricity
0.00487
Inclination
65.8295°
RAAN
271.5186°
Arg. of periapsis
345.8202°
True anomaly
88.88023°
Mean anomaly
88.3225°
Eccentric anomaly
88.60136°
Mean motion
3.44186 °/min
Orbital period
104.59 mins
BSTAR
0.00017596
Loading maneuver chart data...
Computing Atmospheric mass density...
Loading historical data...
Loading historical data...
Loading historical data...
Loading historical data...
Loading historical data...
Loading historical data...
Loading historical data...

Documentation

Showing up to 5 results
|